Date String (YYYY-MM-DD hh:mm:ss) UTC,Instrument flags,Ambient pressure (hPa),Sample flow (lpm),Bypass flow (lpm),Sample temperature (°C),Ambient temperature (°C),ASC tube jacket temperature (°C),LED temperature (°C),Box temperature (°C),Sample RH (%),Span deviation,Mass concentration (μg/m³),Mass concentration (μg/m³),Mass concentration (μg/m³)
DateTimeUTC,F1_M11,P_M11,Q1_M11,Q2_M11,T1_M11,T2_M11,T3_M11,T4_M11,T5_M11,U1_M11,ZSPAN_M11,X0_M11,X2_M11,X1_M11
2022-04-30 07:00:00,,0824.0,5.00,0.00,23.4,22.6,00.0,32.4,25.1,11.7,0000.0,0004.01,0001.59,0000.91
2022-04-30 07:01:00,,0824.1,5.00,0.00,23.4,22.6,00.0,32.4,25.1,11.6,0000.0,0003.96,0001.61,0000.92
2022-04-30 07:02:00,,0824.1,5.00,0.00,23.4,22.5,00.0,32.4,25.1,11.6,0000.0,0004.20,0001.69,0000.94
2022-04-30 07:03:00,,0824.1,5.00,0.00,23.4,22.6,00.0,32.4,25.1,11.6,0000.0,0004.31,0001.73,0000.95
2022-04-30 07:04:00,,0824.1,5.02,0.00,23.4,22.5,00.0,32.4,25.0,11.7,0000.0,0004.15,0001.75,0000.95
2022-04-30 07:05:00,,0824.1,5.00,0.00,23.4,22.5,00.0,32.4,25.0,11.7,0000.0,0003.73,0001.73,0000.96
2022-04-30 07:06:00,,0824.0,4.99,0.00,23.4,22.5,00.0,32.4,25.0,11.7,0000.0,0003.74,0001.75,0000.96
2022-04-30 07:07:00,,0823.9,5.01,0.00,23.4,22.5,00.0,32.4,25.1,11.7,0000.0,0003.62,0001.71,0000.97
2022-04-30 07:08:00,,0823.9,5.01,0.00,23.4,22.5,00.0,32.4,25.1,11.7,0000.0,0003.89,0001.76,0000.98
2022-04-30 07:09:00,,0823.9,5.00,0.00,23.4,22.5,00.0,32.4,25.1,11.8,0000.0,0004.06,0001.82,0000.99
2022-04-30 07:10:00,,0823.9,4.99,0.00,23.4,22.5,00.0,32.4,25.1,11.8,0000.0,0003.73,0001.74,0001.01
2022-04-30 07:11:00,,0823.9,5.00,0.00,23.4,22.5,00.0,32.4,25.1,11.8,0000.0,0003.66,0001.76,0001.03
2022-04-30 07:12:00,,0823.9,5.00,0.00,23.4,22.4,00.0,32.4,25.0,11.8,0000.0,0004.65,0001.76,0001.03
2022-04-30 07:13:00,,0824.0,5.00,0.00,23.4,22.4,00.0,32.4,25.0,11.8,0000.0,0004.55,0001.73,0001.04
2022-04-30 07:14:00,,0824.1,4.99,0.00,23.4,22.3,00.0,32.3,25.0,11.8,0000.0,0005.00,0001.81,0001.04
2022-04-30 07:15:00,,0824.1,4.99,0.00,23.4,22.3,00.0,32.3,25.0,11.8,0000.0,0005.46,0001.88,0001.05
2022-04-30 07:16:00,,0824.1,5.01,0.00,23.4,22.4,00.0,32.3,25.1,11.8,0000.0,0005.51,0001.89,0001.06
2022-04-30 07:17:00,,0824.1,5.01,0.00,23.4,22.3,00.0,32.3,25.0,11.7,0000.0,0005.39,0001.89,0001.07
2022-04-30 07:18:00,,0824.1,5.00,0.00,23.4,22.3,00.0,32.4,25.0,11.7,0000.0,0005.35,0001.90,0001.06
2022-04-30 07:19:00,,0824.1,4.97,0.00,23.4,22.3,00.0,32.3,25.0,11.7,0000.0,0005.12,0001.87,0001.05
2022-04-30 07:20:00,,0824.1,5.00,0.00,23.4,22.4,00.0,32.3,25.1,11.7,0000.0,0005.03,0001.83,0001.05
2022-04-30 07:21:00,,0824.0,5.02,0.00,23.4,22.4,00.0,32.4,25.1,11.6,0000.0,0005.52,0001.91,0001.06
2022-04-30 07:22:00,,0824.1,4.99,0.00,23.4,22.4,00.0,32.4,25.1,11.6,0000.0,0005.73,0001.92,0001.06
2022-04-30 07:23:00,,0824.0,5.01,0.00,23.4,22.4,00.0,32.4,25.1,11.6,0000.0,0004.73,0001.91,0001.06
2022-04-30 07:24:00,,0824.0,5.00,0.00,23.4,22.4,00.0,32.4,25.1,11.6,0000.0,0004.47,0001.86,0001.06
2022-04-30 07:25:00,,0824.0,5.00,0.00,23.4,22.4,00.0,32.4,25.1,11.5,0000.0,0003.92,0001.74,0001.05
2022-04-30 07:26:00,,0824.1,4.99,0.00,23.4,22.4,00.0,32.4,25.1,11.6,0000.0,0003.40,0001.67,0001.05
2022-04-30 07:27:00,,0824.0,5.01,0.00,23.4,22.4,00.0,32.4,25.1,11.6,0000.0,0003.51,0001.69,0001.04
2022-04-30 07:28:00,,0824.0,4.99,0.00,23.4,22.4,00.0,32.4,25.1,11.6,0000.0,0003.79,0001.71,0001.04
2022-04-30 07:29:00,,0824.1,5.00,0.00,23.4,22.4,00.0,32.4,25.1,11.6,0000.0,0003.81,0001.71,0001.04
2022-04-30 07:30:00,,0824.1,4.99,0.00,23.3,22.4,00.0,32.4,25.1,11.6,0000.0,0003.83,0001.73,0001.05
2022-04-30 07:31:00,,0824.0,5.00,0.00,23.3,22.4,00.0,32.4,25.0,11.7,0000.0,0003.80,0001.74,0001.05
2022-04-30 07:32:00,,0824.0,5.00,0.00,23.3,22.4,00.0,32.4,25.0,11.7,0000.0,0003.37,0001.67,0001.05
2022-04-30 07:33:00,,0824.0,5.01,0.00,23.3,22.4,00.0,32.3,25.0,11.8,0000.0,0003.07,0001.65,0001.06
2022-04-30 07:34:00,,0824.0,4.99,0.00,23.3,22.4,00.0,32.3,24.9,11.7,0000.0,0003.07,0001.67,0001.06
2022-04-30 07:35:00,,0824.1,4.99,0.00,23.2,22.3,00.0,32.3,24.9,11.8,0000.0,0003.23,0001.73,0001.07
2022-04-30 07:36:00,,0824.1,5.02,0.00,23.2,22.3,00.0,32.3,24.9,11.8,0000.0,0003.34,0001.77,0001.09
2022-04-30 07:37:00,,0824.0,4.99,0.00,23.2,22.3,00.0,32.3,24.9,11.8,0000.0,0003.42,0001.79,0001.08
2022-04-30 07:38:00,,0824.0,4.99,0.00,23.2,22.3,00.0,32.3,24.9,11.8,0000.0,0003.34,0001.77,0001.08
2022-04-30 07:39:00,,0824.0,5.02,0.00,23.2,22.3,00.0,32.3,25.0,11.7,0000.0,0003.00,0001.75,0001.09
2022-04-30 07:40:00,,0824.1,5.00,0.00,23.2,22.3,00.0,32.3,25.0,11.7,0000.0,0003.05,0001.77,0001.10
2022-04-30 07:41:00,,0824.0,4.99,0.00,23.3,22.3,00.0,32.3,25.0,11.8,0000.0,0003.01,0001.76,0001.11
2022-04-30 07:42:00,,0824.0,5.00,0.00,23.3,22.3,00.0,32.3,24.9,11.7,0000.0,0003.04,0001.78,0001.13
2022-04-30 07:43:00,,0824.1,5.01,0.00,23.3,22.3,00.0,32.3,24.9,11.7,0000.0,0003.25,0001.82,0001.13
2022-04-30 07:44:00,,0824.1,4.99,0.00,23.3,22.3,00.0,32.3,25.0,11.7,0000.0,0003.22,0001.80,0001.13
2022-04-30 07:45:00,,0824.1,4.99,0.00,23.3,22.3,00.0,32.3,24.9,11.7,0000.0,0003.13,0001.76,0001.12
2022-04-30 07:46:00,,0824.0,5.01,0.00,23.3,22.2,00.0,32.3,24.9,11.7,0000.0,0003.08,0001.75,0001.12
2022-04-30 07:47:00,,0824.0,4.99,0.00,23.3,22.2,00.0,32.3,24.9,11.6,0000.0,0003.06,0001.75,0001.12
2022-04-30 07:48:00,,0824.0,5.00,0.00,23.3,22.2,00.0,32.3,24.9,11.6,0000.0,0003.09,0001.78,0001.13
2022-04-30 07:49:00,,0824.1,5.02,0.00,23.3,22.2,00.0,32.3,25.0,11.6,0000.0,0003.13,0001.80,0001.13
2022-04-30 07:50:00,,0824.0,4.99,0.00,23.3,22.2,00.0,32.3,25.0,11.7,0000.0,0003.23,0001.83,0001.13
2022-04-30 07:51:00,,0824.0,5.00,0.00,23.3,22.2,00.0,32.3,25.0,11.7,0000.0,0003.19,0001.81,0001.12
2022-04-30 07:52:00,,0824.1,5.01,0.00,23.3,22.3,00.0,32.3,25.0,11.7,0000.0,0003.48,0001.84,0001.12
2022-04-30 07:53:00,,0824.1,4.99,0.00,23.3,22.3,00.0,32.3,25.0,11.6,0000.0,0003.51,0001.84,0001.12
2022-04-30 07:54:00,,0824.0,5.00,0.00,23.3,22.3,00.0,32.3,25.0,11.6,0000.0,0003.53,0001.84,0001.11
2022-04-30 07:55:00,,0824.1,5.01,0.00,23.3,22.3,00.0,32.3,25.0,11.6,0000.0,0004.20,0001.87,0001.12
2022-04-30 07:56:00,,0824.1,4.99,0.00,23.3,22.3,00.0,32.3,25.1,11.6,0000.0,0004.51,0001.95,0001.12
2022-04-30 07:57:00,,0824.1,5.00,0.00,23.3,22.3,00.0,32.3,25.1,11.6,0000.0,0004.41,0001.92,0001.12
2022-04-30 07:58:00,,0824.1,5.02,0.00,23.3,22.3,00.0,32.3,25.0,11.6,0000.0,0004.35,0001.89,0001.11
2022-04-30 07:59:00,,0824.1,4.99,0.00,23.3,22.3,00.0,32.3,25.1,11.7,0000.0,0004.68,0001.91,0001.11
